星链-2492 (STARLINK-2492 )

导读 | 豆包AI

STARLINK-2492(星链-2492)是美国太空探索技术公司(SpaceX)星链计划第24批次发射的低轨通信卫星,国际标识为2021-027BK,于2021年4月7日发射,目前仍在轨运行。 卫星采用Starlink V1.0平台,运行在约550公里高度的近地轨道,轨道倾角53.056°,周期约95.6分钟。它配备先进通信设备,支持星间链路,旨在为全球提供高速互联网服务,助力偏远地区网络覆盖。

Basic Information
目录编号:
48149
目录名称:
STARLINK-2492
国际标识:
2021-027BK
轨道中心:
EARTH
卫星名称:
星链-2492
卫星全名:
星链-2492 (STARLINK-2492 )
卫星状态:
在轨 (已飞行1802 天)
发射日期:
2021-04-07 UTC
国别 :
美国 (US)
星等 :
--
Orbit Information
数据来源 国际轨道数据
星历时间: 2026-03-14T16:00:02+0800
8小时前
查看轨道信息
半长轴: 6883.49km
偏心率: 0.0001811
轨道倾角: 53.113°
近地点辐角 101.867°
升交点赤经 130.436°
平近点角 71.763°
近地点: 504.106km
远地点: 506.6km
周期: 94.727分钟
每日圈数: 15.201616
Detailed Information
固有亮度:
5
最大亮度:
2.5
卫星平台:
Starlink V1.0
覆盖范围:
全球
运营商:
太空探索技术公司
运营商所在国:
美国
制造商(研发单位):
太空探索技术公司
制造商所在国:
美国
使用方式:
暂无
Satellite Introduction
星链(Starlink)计划是由太空探索技术公司(SpaceX)提出的一个巨型低轨卫星互联网星座项目,计划在2019年至2024年间在太空搭建由约1.2万颗卫星组成的“星链”网络,其中1584颗将部署在地球上空550千米处的近地轨道,并从2020年开始工作。该卫星仍在工作。
2D Orbit Map
3D Orbit Map
Orbit Altitude Analysis Chart
Orbit Inclination Analysis Chart
Orbit Comprehensive Analysis Chart
View Comprehensive Chart